Location: Unspecified
(42.3650°N, 71.1030°W)
Time: 10:20:39
(UTC+00:00)

Courier 1B - Pass Details

Date: 28 June 2024
Orbit: 962 x 1209 km, 28.3° (Epoch: 13 July)

Event Time Altitude Azimuth Distance (km) Brightness Sun altitude
Rises 07:05:43 0° 254° (WSW) 3,812 - -17.1°
Reaches altitude 10° 07:09:23 10° 236° (WSW) 2,905 - -16.7°
Maximum altitude 07:13:50 18° 197° (SSW) 2,437 - -16.2°
Exits shadow 07:15:20 17° 183° (S) 2,516 9.2 -16.1°
Drops below altitude 10° 07:18:27 10° 158° (SSE) 3,017 9.8 -15.7°
Sets 07:22:22 0° 141° (SE) 4,020 10.6 -15.3°
